Location: Ottawa
(45.4170°N, 75.7000°W)
Time: 07:23:13
(UTC-05:00)

ISS - Pass Details

Date: 11 February 2026
Orbit: 416 x 427 km, 51.6° (Epoch: 6 March)

Event Time Altitude Azimuth Distance (km) Brightness Sun altitude
Rises 05:38:26 0° 184° (S) 2,345 0.0 -16.6°
Reaches altitude 10° 05:42:13 10° 140° (SE) 1,487 -0.4 -15.9°
Maximum altitude 05:42:44 10° 131° (SE) 1,471 -0.2 -15.9°
Drops below altitude 10° 05:43:15 10° 122° (ESE) 1,488 0.0 -15.8°
Sets 05:47:03 0° 78° (ENE) 2,356 1.6 -15.1°
